�������l�o���
Date,Time,MP-1(��Sv/h),MP-2(��Sv/h),MP-3(��Sv/h),MP-4(��Sv/h),MP-5(��Sv/h),MP-6(��Sv/h),MP-7(��Sv/h),MP-8(��Sv/h),����,����(m/s),���J
2020/02/18,00:00,0.682,0.955,0.644,1.181,0.835,0.406,0.687,0.653,�k�k��,4.2,�L
2020/02/18,00:10,0.680,0.957,0.644,1.180,0.835,0.404,0.685,0.652,�k��,4.1,�L
2020/02/18,00:20,0.685,0.959,0.645,1.182,0.837,0.404,0.687,0.654,-,CALM,�L
2020/02/18,00:30,0.686,0.962,0.647,1.185,0.838,0.405,0.686,0.654,�k�k��,5.2,�L
2020/02/18,00:40,0.689,0.965,0.652,1.187,0.842,0.406,0.688,0.655,�k�k��,3.9,�L
2020/02/18,00:50,0.689,0.966,0.650,1.189,0.841,0.406,0.687,0.656,�k,4.1,�L
2020/02/18,01:00,0.688,0.965,0.649,1.187,0.842,0.406,0.689,0.654,�k�k��,4.2,�L
2020/02/18,01:10,0.688,0.965,0.647,1.186,0.840,0.405,0.688,0.654,�k�k��,3.8,�L
2020/02/18,01:20,0.684,0.961,0.646,1.185,0.841,0.402,0.688,0.653,�k�k��,1.9,�L
2020/02/18,01:30,0.684,0.965,0.647,1.187,0.839,0.403,0.688,0.655,�k�k��,1.9,�L
2020/02/18,01:40,0.683,0.962,0.645,1.186,0.839,0.403,0.687,0.653,�k�k��,1.5,�L
2020/02/18,01:50,0.685,0.962,0.644,1.187,0.839,0.403,0.686,0.655,�k�k��,2.0,�L
2020/02/18,02:00,0.684,0.961,0.644,1.186,0.840,0.402,0.689,0.654,��,1.1,�L
2020/02/18,02:10,0.683,0.961,0.643,1.190,0.840,0.403,0.688,0.653,�k��,0.9,�L
2020/02/18,02:20,0.683,0.964,0.645,1.188,0.837,0.404,0.686,0.652,�k��,1.5,�L
2020/02/18,02:30,0.682,0.963,0.644,1.187,0.838,0.403,0.688,0.653,�k�k��,0.9,�L
2020/02/18,02:40,0.681,0.963,0.641,1.188,0.839,0.402,0.687,0.653,�k,2.0,�L
2020/02/18,02:50,0.682,0.963,0.641,1.187,0.837,0.401,0.686,0.654,�k�k��,3.3,�L
2020/02/18,03:00,0.679,0.962,0.640,1.186,0.837,0.400,0.686,0.654,�k�k��,3.3,�L
2020/02/18,03:10,0.681,0.961,0.641,1.186,0.837,0.401,0.688,0.653,�k�k��,4.3,�L
2020/02/18,03:20,0.681,0.965,0.642,1.188,0.838,0.401,0.686,0.653,�k�k��,3.4,�L
2020/02/18,03:30,0.680,0.962,0.642,1.186,0.837,0.401,0.688,0.653,�k�k��,1.5,�L
2020/02/18,03:40,0.680,0.962,0.639,1.184,0.837,0.401,0.687,0.654,�쐼,1.1,��
2020/02/18,03:50,0.680,0.962,0.640,1.186,0.837,0.400,0.687,0.654,�쐼,1.5,��
2020/02/18,04:00,0.677,0.958,0.639,1.185,0.836,0.398,0.686,0.653,���쐼,2.0,��
2020/02/18,04:10,0.676,0.959,0.637,1.184,0.835,0.399,0.685,0.652,���쐼,2.6,��
2020/02/18,04:20,0.677,0.961,0.638,1.182,0.836,0.397,0.685,0.652,���쐼,3.3,��
2020/02/18,04:30,0.677,0.957,0.637,1.185,0.834,0.397,0.685,0.652,��,2.8,��
2020/02/18,04:40,0.677,0.961,0.637,1.185,0.833,0.397,0.687,0.652,���k��,3.2,��
2020/02/18,04:50,0.677,0.961,0.636,1.184,0.835,0.397,0.688,0.652,�k��,4.3,��
2020/02/18,05:00,0.678,0.960,0.636,1.184,0.833,0.396,0.686,0.652,�k��,5.1,��
2020/02/18,05:10,0.677,0.958,0.637,1.184,0.835,0.397,0.686,0.651,�k��,3.9,��
2020/02/18,05:20,0.676,0.958,0.635,1.186,0.836,0.396,0.687,0.652,�k��,3.6,��
2020/02/18,05:30,0.677,0.959,0.638,1.184,0.835,0.397,0.686,0.652,�k��,3.8,��
2020/02/18,05:40,0.676,0.959,0.638,1.184,0.834,0.396,0.687,0.653,�k��,4.7,��
2020/02/18,05:50,0.675,0.960,0.636,1.184,0.835,0.394,0.686,0.653,���k��,4.8,��
2020/02/18,06:00,0.675,0.960,0.636,1.187,0.834,0.396,0.686,0.652,���k��,5.4,��
2020/02/18,06:10,0.675,0.958,0.637,1.185,0.834,0.395,0.686,0.653,���k��,4.6,��
2020/02/18,06:20,0.675,0.960,0.638,1.184,0.837,0.396,0.686,0.653,���k��,3.6,��
2020/02/18,06:30,0.676,0.960,0.637,1.187,0.835,0.394,0.686,0.653,��,3.5,��
2020/02/18,06:40,0.676,0.958,0.637,1.185,0.836,0.395,0.685,0.652,���k��,5.8,��
2020/02/18,06:50,0.676,0.959,0.636,1.186,0.836,0.395,0.685,0.653,���k��,5.9,��
2020/02/18,07:00,0.676,0.960,0.636,1.183,0.836,0.396,0.687,0.653,�k��,4.6,��
2020/02/18,07:10,0.676,0.958,0.635,1.186,0.837,0.395,0.685,0.652,���k��,5.6,��
2020/02/18,07:20,0.677,0.959,0.636,1.183,0.838,0.396,0.686,0.653,���k��,4.9,��
2020/02/18,07:30,0.676,0.960,0.637,1.185,0.837,0.395,0.686,0.654,���k��,5.9,��
2020/02/18,07:40,0.677,0.960,0.638,1.187,0.836,0.394,0.686,0.653,��,6.9,��
2020/02/18,07:50,0.678,0.959,0.637,1.184,0.836,0.395,0.685,0.652,��,6.7,��
2020/02/18,08:00,0.677,0.959,0.634,1.188,0.837,0.395,0.686,0.653,��,6.4,��
2020/02/18,08:10,0.676,0.960,0.637,1.187,0.837,0.394,0.688,0.654,��,6.5,��
2020/02/18,08:20,0.675,0.962,0.638,1.188,0.836,0.395,0.690,0.654,��,5.6,��
2020/02/18,08:30,0.678,0.960,0.634,1.187,0.838,0.395,0.686,0.652,��,5.0,��
2020/02/18,08:40,0.678,0.962,0.636,1.190,0.838,0.395,0.689,0.653,���k��,4.0,��
2020/02/18,08:50,0.679,0.959,0.636,1.188,0.838,0.395,0.687,0.654,��,2.6,��
2020/02/18,09:00,0.678,0.960,0.637,1.188,0.841,0.395,0.689,0.655,��,3.4,��
2020/02/18,09:10,0.679,0.958,0.637,1.188,0.839,0.394,0.689,0.654,���k��,3.0,��
2020/02/18,09:20,0.678,0.956,0.638,1.190,0.840,0.396,0.689,0.655,��,3.0,��
2020/02/18,09:30,0.679,0.956,0.638,1.187,0.841,0.396,0.690,0.655,��,4.8,��
2020/02/18,09:40,0.681,-,0.637,1.191,0.842,0.396,0.688,0.656,��,6.9,��
2020/02/18,09:50,0.683,-,0.637,1.189,0.841,0.397,0.687,0.653,��,6.0,��
2020/02/18,10:00,0.681,-,0.639,1.188,0.840,0.396,0.689,0.655,���k��,3.7,��
2020/02/18,10:10,0.680,-,0.637,1.191,0.841,0.397,0.688,0.656,���k��,4.9,��
2020/02/18,10:20,0.683,-,0.640,1.193,0.843,0.396,0.689,0.655,���k��,5.3,��
2020/02/18,10:30,0.681,-,0.638,1.191,0.842,0.397,0.690,0.657,��,7.3,��
2020/02/18,10:40,0.680,-,0.638,1.192,0.842,0.397,0.689,0.656,��,8.2,��
2020/02/18,10:50,0.682,-,0.636,1.193,0.844,0.397,0.688,0.656,��,11.0,��
2020/02/18,11:00,0.680,0.957,0.637,1.193,0.845,0.397,0.689,0.655,��,11.3,��
2020/02/18,11:10,0.684,0.960,0.638,1.194,0.844,0.398,0.689,0.657,���쐼,9.9,��
2020/02/18,11:20,0.683,0.959,0.642,1.195,0.847,0.398,0.689,0.656,��,9.6,��
2020/02/18,11:30,0.683,0.964,0.642,1.193,0.845,0.396,0.688,0.655,��,6.7,��
2020/02/18,11:40,0.682,0.962,0.642,1.194,0.848,0.397,0.688,-,��,8.3,��
2020/02/18,11:50,0.688,0.963,0.641,1.195,0.847,0.396,0.688,-,���쐼,7.5,��
2020/02/18,12:00,0.685,0.968,0.643,1.197,0.845,0.399,0.691,0.654,��,7.1,��
2020/02/18,12:10,0.685,0.967,0.642,1.195,0.847,0.399,0.689,0.654,��,7.1,��
2020/02/18,12:20,0.684,0.970,0.643,1.196,0.847,0.398,0.687,0.655,��,9.2,��
2020/02/18,12:30,0.686,0.972,0.643,1.195,0.848,0.398,0.689,0.655,��,10.7,��
2020/02/18,12:40,0.685,0.970,0.646,1.198,0.848,0.398,0.690,0.657,��,10.0,��
2020/02/18,12:50,0.686,0.971,0.643,1.196,0.847,0.400,0.690,0.659,��,13.8,��
2020/02/18,13:00,0.687,0.973,0.645,1.198,0.848,0.399,0.690,0.658,��,13.0,��
2020/02/18,13:10,0.686,0.975,0.645,1.197,0.848,0.399,0.690,0.657,���쐼,10.3,��
2020/02/18,13:20,0.687,0.974,0.646,1.199,0.851,0.398,0.690,0.656,��,10.9,��
2020/02/18,13:30,0.686,0.975,0.643,1.201,0.849,0.399,0.691,0.658,��,9.6,��
2020/02/18,13:40,0.686,0.974,0.645,1.202,0.849,0.399,0.691,0.656,��,9.1,��
2020/02/18,13:50,0.685,0.982,0.645,1.204,0.849,0.400,0.689,0.655,��,9.8,�L
2020/02/18,14:00,0.686,0.985,0.646,1.202,0.850,0.398,0.691,0.654,��,8.2,�L
2020/02/18,14:10,0.686,0.986,0.646,1.202,0.848,0.399,0.690,0.656,��,11.1,��
2020/02/18,14:20,0.687,0.986,0.647,1.202,0.852,0.399,0.690,0.657,��,7.9,��
2020/02/18,14:30,0.688,0.972,0.646,1.202,0.852,0.399,0.691,0.656,��,10.3,�L
2020/02/18,14:40,0.687,0.976,0.647,1.203,0.853,0.400,0.689,0.656,��,9.8,�L
2020/02/18,14:50,0.688,0.976,0.647,1.202,0.852,0.400,0.691,0.655,��,7.9,�L
2020/02/18,15:00,0.687,0.981,0.648,1.202,0.851,0.398,0.689,0.655,���쐼,6.4,��
2020/02/18,15:10,0.687,0.983,0.647,1.203,0.851,0.399,0.691,0.656,���쐼,8.3,��
2020/02/18,15:20,0.686,0.976,0.646,1.205,0.852,0.399,0.693,0.655,���쐼,7.8,��
2020/02/18,15:30,0.687,0.977,0.648,1.206,0.853,0.401,0.693,0.658,��,7.5,��
2020/02/18,15:40,0.688,0.978,0.647,1.202,0.853,0.400,0.693,0.659,��,6.7,��
2020/02/18,15:50,0.689,0.981,0.647,1.205,0.852,0.400,0.693,0.658,���k��,7.1,��
2020/02/18,16:00,0.688,0.981,0.648,1.204,0.854,0.400,0.693,0.658,���쐼,6.3,��
2020/02/18,16:10,0.688,0.981,0.649,1.204,0.853,0.400,0.693,0.659,��,6.9,��
2020/02/18,16:20,0.691,0.979,0.648,1.207,0.854,0.398,0.694,0.659,��,5.7,��
2020/02/18,16:30,0.690,0.981,0.646,1.207,0.855,0.398,0.691,0.660,���쐼,8.0,��
2020/02/18,16:40,0.688,0.981,0.648,1.204,0.854,0.399,0.692,0.660,���쐼,8.0,��
2020/02/18,16:50,0.689,0.980,0.646,1.207,0.852,0.399,0.693,0.660,���쐼,7.8,��
2020/02/18,17:00,0.688,0.982,0.646,1.205,0.852,0.400,0.694,0.659,���쐼,8.6,��
2020/02/18,17:10,0.688,0.979,0.646,1.201,0.855,0.399,0.694,0.656,��,10.2,��
2020/02/18,17:20,0.685,0.980,0.646,1.204,0.855,0.399,0.696,0.660,��,11.9,��
2020/02/18,17:30,0.687,0.982,0.647,1.204,0.855,0.400,0.692,0.659,��,8.7,��
2020/02/18,17:40,0.688,0.980,0.646,1.204,0.853,0.400,0.692,0.660,���쐼,11.3,��
2020/02/18,17:50,0.686,0.979,0.646,1.205,0.853,0.400,0.695,0.659,��,10.2,��
2020/02/18,18:00,0.686,0.980,0.649,1.204,0.855,0.399,0.694,0.658,���쐼,10.0,��
2020/02/18,18:10,0.687,0.981,0.647,1.205,0.852,0.399,0.694,0.658,���쐼,9.0,��
2020/02/18,18:20,0.688,0.982,0.648,1.205,0.852,0.400,0.693,0.659,���쐼,11.1,��
2020/02/18,18:30,0.688,0.981,0.647,1.207,0.853,0.399,0.694,0.659,���쐼,9.8,��
2020/02/18,18:40,0.688,0.980,0.647,1.207,0.853,0.399,0.693,0.658,���쐼,6.9,��
2020/02/18,18:50,0.686,0.983,0.645,1.206,0.853,0.399,0.693,0.659,��,7.0,��
2020/02/18,19:00,0.688,0.981,0.648,1.206,0.854,0.398,0.691,0.657,��,8.3,��
2020/02/18,19:10,0.687,0.981,0.648,1.204,0.855,0.399,0.694,0.660,��,6.9,��
2020/02/18,19:20,0.687,0.981,0.648,1.207,0.853,0.399,0.693,0.659,��,6.2,��
2020/02/18,19:30,0.688,0.979,0.648,1.206,0.856,0.399,0.693,0.657,��,7.5,��
2020/02/18,19:40,0.686,0.984,0.648,1.206,0.856,0.400,0.692,0.660,��,7.9,��
2020/02/18,19:50,0.686,0.979,0.647,1.207,0.857,0.399,0.691,0.658,��,7.3,��
2020/02/18,20:00,0.686,0.981,0.651,1.206,0.855,0.400,0.694,0.658,��,8.1,��
2020/02/18,20:10,0.687,0.980,0.648,1.204,0.855,0.399,0.694,0.659,��,7.6,��
2020/02/18,20:20,0.688,0.981,0.647,1.207,0.856,0.400,0.693,0.659,��,6.4,��
2020/02/18,20:30,0.687,0.981,0.649,1.207,0.855,0.400,0.692,0.659,��,6.9,��
2020/02/18,20:40,0.686,0.981,0.647,1.204,0.854,0.399,0.693,0.659,��,4.8,��
2020/02/18,20:50,0.686,0.982,0.650,1.205,0.857,0.398,0.691,0.657,��,5.0,��
2020/02/18,21:00,0.687,0.979,0.647,1.206,0.858,0.397,0.692,0.659,���쐼,3.9,��
2020/02/18,21:10,0.686,0.980,0.649,1.205,0.857,0.400,0.692,0.659,���쐼,3.4,��
2020/02/18,21:20,0.685,0.982,0.648,1.205,0.856,0.399,0.692,0.658,��,3.8,��
2020/02/18,21:30,0.686,0.980,0.648,1.207,0.856,0.399,0.692,0.659,���쐼,4.9,��
2020/02/18,21:40,0.685,0.979,0.647,1.206,0.857,0.400,0.694,0.659,���쐼,5.5,��
2020/02/18,21:50,0.686,0.979,0.647,1.204,0.856,0.398,0.693,0.659,��,4.1,��
2020/02/18,22:00,0.685,0.979,0.647,1.206,0.856,0.400,0.693,0.658,��,3.6,��
2020/02/18,22:10,0.686,0.979,0.649,1.205,0.857,0.400,0.692,0.660,��,3.4,��
2020/02/18,22:20,0.685,0.981,0.648,1.205,0.856,0.399,0.694,0.659,��,4.1,��
2020/02/18,22:30,0.685,0.982,0.646,1.207,0.856,0.398,0.691,0.658,��,3.8,��
2020/02/18,22:40,0.685,0.982,0.648,1.205,0.857,0.398,0.692,0.658,��,3.2,��
2020/02/18,22:50,0.685,0.979,0.647,1.207,0.855,0.398,0.693,0.658,��,3.2,��
2020/02/18,23:00,0.686,0.980,0.647,1.204,0.854,0.397,0.692,0.659,���k��,2.5,��
2020/02/18,23:10,0.686,0.981,0.646,1.205,0.858,0.399,0.694,0.658,��,3.0,��
2020/02/18,23:20,0.684,0.981,0.648,1.207,0.856,0.398,0.695,0.659,��,2.6,��
2020/02/18,23:30,0.686,0.980,0.648,1.206,0.857,0.398,0.693,0.659,���k��,3.6,��
2020/02/18,23:40,0.684,0.980,0.647,1.207,0.857,0.397,0.693,0.658,���k��,5.7,��
2020/02/18,23:50,0.686,0.983,0.649,1.205,0.856,0.397,0.692,0.659,��,4.8,��
